Back to catalog

COSMOS 1275 DEB

AlivePO
NORAD 14407·DEBRIS·🇷🇺 Russia

Launched Jun 4, 1981 from Plesetsk Cosmodrome

Loading…

Next Passes (next 24 hours)

TLE

FreshSource: Space-Track

Epoch: Sep 14, 2026, 04:54 UTC

1 14407U 81053JC  26257.20468756  .00002048  00000-0  88998-3 0  9992
2 14407  82.7678 175.4936 0042961 351.9065   8.1419 14.23248085234584

Track COSMOS 1275 DEB in real time with AllMySat

Download on the App Store